Tracking 25656 objects as of 21-May-2022
HD Live streaming from Space Station
objects crossing your sky now

AISTECHSAT-3

Track AISTECHSAT-3 now!
10-day predictions
AISTECHSAT-3 is classified as:


NORAD ID: 44103
Int'l Code: 2019-018AB
Perigee: 484.0 km
Apogee: 499.4 km
Inclination: 97.3 °
Period: 94.3 minutes
Semi major axis: 6862 km
RCS: Unknown
Launch date: April 1, 2019
Source: Spain (SPN)
Launch site: SRIHARIKOTA (SRI)

Uplink (MHz):
Downlink (MHz): 436.730
Beacon (MHz):
Mode: 4k8/9k6 GFSK
Call sign:
Status: Active

aabbcc
Your satellite tracking list
Your tracking list is empty




NASA's NSSDC Master Catalog

Two Line Element Set (TLE):
1 44103U 19018AB  22141.43064963  .00015340  00000-0  57866-3 0  9994
2 44103  97.3102 201.2190 0011284 224.8527 135.1801 15.27074495174529
Source of the keplerian elements: AFSPC